Year,Month,Day,Hour,Minute,Value (Times are PST for temperature in C)
2011,07,09,00,00,10.20
2011,07,09,00,01,10.20
2011,07,09,00,02,10.10
2011,07,09,00,03,10.20
2011,07,09,00,04,10.10
2011,07,09,00,05,10.10
2011,07,09,00,06,10.10
2011,07,09,00,07,10.10
2011,07,09,00,08,10.10
2011,07,09,00,09,10.10
2011,07,09,00,10,10.10
2011,07,09,00,11,10.10
2011,07,09,00,12,10.10
2011,07,09,00,13,10.00
2011,07,09,00,14,10.00
2011,07,09,00,15,10.00
2011,07,09,00,16,9.90
2011,07,09,00,17,9.90
2011,07,09,00,18,9.90
2011,07,09,00,19,9.90
2011,07,09,00,20,9.90
2011,07,09,00,21,9.90
2011,07,09,00,22,9.90
2011,07,09,00,23,9.90
2011,07,09,00,24,9.90
2011,07,09,00,25,9.90
2011,07,09,00,26,9.90
2011,07,09,00,27,9.90
2011,07,09,00,28,9.80
2011,07,09,00,29,9.80
2011,07,09,00,30,9.80
2011,07,09,00,31,9.70
2011,07,09,00,32,9.70
2011,07,09,00,33,9.70
2011,07,09,00,34,9.70
2011,07,09,00,35,9.60
2011,07,09,00,36,9.60
2011,07,09,00,37,9.60
2011,07,09,00,38,9.50
2011,07,09,00,39,9.50
2011,07,09,00,40,9.50
2011,07,09,00,41,9.60
2011,07,09,00,42,9.60
2011,07,09,00,43,9.60
2011,07,09,00,44,9.60
2011,07,09,00,45,9.60
2011,07,09,00,46,9.60
2011,07,09,00,47,9.70
2011,07,09,00,48,9.70
2011,07,09,00,49,9.70
2011,07,09,00,50,9.70
2011,07,09,00,51,9.80
2011,07,09,00,52,9.80
2011,07,09,00,53,9.80
2011,07,09,00,54,9.80
2011,07,09,00,55,9.80
2011,07,09,00,56,9.80
2011,07,09,00,57,9.80
2011,07,09,00,58,9.80
2011,07,09,00,59,9.80
2011,07,09,01,00,9.80
2011,07,09,01,01,9.80
2011,07,09,01,02,9.80
2011,07,09,01,03,9.80
2011,07,09,01,04,9.80
2011,07,09,01,05,9.80
2011,07,09,01,06,9.70
2011,07,09,01,07,9.70
2011,07,09,01,08,9.70
2011,07,09,01,09,9.70
2011,07,09,01,10,9.70
2011,07,09,01,11,9.70
2011,07,09,01,12,9.70
2011,07,09,01,13,9.70
2011,07,09,01,14,9.70
2011,07,09,01,15,9.70
2011,07,09,01,16,9.70
2011,07,09,01,17,9.70
2011,07,09,01,18,9.70
2011,07,09,01,19,9.70
2011,07,09,01,20,9.70
2011,07,09,01,21,9.70
2011,07,09,01,22,9.70
2011,07,09,01,23,9.70
2011,07,09,01,24,9.70
2011,07,09,01,25,9.70
2011,07,09,01,26,9.70
2011,07,09,01,27,9.70
2011,07,09,01,28,9.70
2011,07,09,01,29,9.70
2011,07,09,01,30,9.70
2011,07,09,01,31,9.70
2011,07,09,01,32,9.70
2011,07,09,01,33,9.70
2011,07,09,01,34,9.70
2011,07,09,01,35,9.70
2011,07,09,01,36,9.70
2011,07,09,01,37,9.70
2011,07,09,01,38,9.70
2011,07,09,01,39,9.70
2011,07,09,01,40,9.70
2011,07,09,01,41,9.70
2011,07,09,01,42,9.80
2011,07,09,01,43,9.80
2011,07,09,01,44,9.80
2011,07,09,01,45,9.70
2011,07,09,01,46,9.70
2011,07,09,01,47,9.70
2011,07,09,01,48,9.70
2011,07,09,01,49,9.70
2011,07,09,01,50,9.70
2011,07,09,01,51,9.70
2011,07,09,01,52,9.70
2011,07,09,01,53,9.70
2011,07,09,01,54,9.70
2011,07,09,01,55,9.70
2011,07,09,01,56,9.70
2011,07,09,01,57,9.70
2011,07,09,01,58,9.70
2011,07,09,01,59,9.70
2011,07,09,02,00,9.70
2011,07,09,02,01,9.70
2011,07,09,02,02,9.60
2011,07,09,02,03,9.60
2011,07,09,02,04,9.60
2011,07,09,02,05,9.60
2011,07,09,02,06,9.60
2011,07,09,02,07,9.60
2011,07,09,02,08,9.60
2011,07,09,02,09,9.60
2011,07,09,02,10,9.60
2011,07,09,02,11,9.60
2011,07,09,02,12,9.60
2011,07,09,02,13,9.50
2011,07,09,02,14,9.50
2011,07,09,02,15,9.50
2011,07,09,02,16,9.50
2011,07,09,02,17,9.50
2011,07,09,02,18,9.50
2011,07,09,02,19,9.50
2011,07,09,02,20,9.50
2011,07,09,02,21,9.50
2011,07,09,02,22,9.40
2011,07,09,02,23,9.40
2011,07,09,02,24,9.40
2011,07,09,02,25,9.40
2011,07,09,02,26,9.40
2011,07,09,02,27,9.40
2011,07,09,02,28,9.30
2011,07,09,02,29,9.30
2011,07,09,02,30,9.30
2011,07,09,02,31,9.30
2011,07,09,02,32,9.30
2011,07,09,02,33,9.30
2011,07,09,02,34,9.30
2011,07,09,02,35,9.30
2011,07,09,02,36,9.20
2011,07,09,02,37,9.20
2011,07,09,02,38,9.20
2011,07,09,02,39,9.20
2011,07,09,02,40,9.20
2011,07,09,02,41,9.20
2011,07,09,02,42,9.20
2011,07,09,02,43,9.20
2011,07,09,02,44,9.20
2011,07,09,02,45,9.20
2011,07,09,02,46,9.20
2011,07,09,02,47,9.20
2011,07,09,02,48,9.20
2011,07,09,02,49,9.20
2011,07,09,02,50,9.20
2011,07,09,02,51,9.20
2011,07,09,02,52,9.20
2011,07,09,02,53,9.20
2011,07,09,02,54,9.20
2011,07,09,02,55,9.20
2011,07,09,02,56,9.20
2011,07,09,02,57,9.20
2011,07,09,02,58,9.10
2011,07,09,02,59,9.10
2011,07,09,03,00,9.10
2011,07,09,03,01,9.10
2011,07,09,03,02,9.10
2011,07,09,03,03,9.10
2011,07,09,03,04,9.10
2011,07,09,03,05,9.10
2011,07,09,03,06,9.10
2011,07,09,03,07,9.10
2011,07,09,03,08,9.10
2011,07,09,03,09,9.00
2011,07,09,03,10,9.00
2011,07,09,03,11,9.00
2011,07,09,03,12,9.00
2011,07,09,03,13,9.00
2011,07,09,03,14,8.90
2011,07,09,03,15,8.90
2011,07,09,03,16,8.90
2011,07,09,03,17,8.90
2011,07,09,03,18,8.90
2011,07,09,03,19,8.90
2011,07,09,03,20,8.90
2011,07,09,03,21,8.90
2011,07,09,03,22,8.80
2011,07,09,03,23,8.80
2011,07,09,03,24,8.80
2011,07,09,03,25,8.80
2011,07,09,03,26,8.80
2011,07,09,03,27,8.70
2011,07,09,03,28,8.70
2011,07,09,03,29,8.70
2011,07,09,03,30,8.70
2011,07,09,03,31,8.70
2011,07,09,03,32,8.70
2011,07,09,03,33,8.60
2011,07,09,03,34,8.60
2011,07,09,03,35,8.60
2011,07,09,03,36,8.60
2011,07,09,03,37,8.60
2011,07,09,03,38,8.60
2011,07,09,03,39,8.60
2011,07,09,03,40,8.60
2011,07,09,03,41,8.50
2011,07,09,03,42,8.50
2011,07,09,03,43,8.50
2011,07,09,03,44,8.40
2011,07,09,03,45,8.40
2011,07,09,03,46,8.40
2011,07,09,03,47,8.40
2011,07,09,03,48,8.40
2011,07,09,03,49,8.30
2011,07,09,03,50,8.30
2011,07,09,03,51,8.30
2011,07,09,03,52,8.30
2011,07,09,03,53,8.30
2011,07,09,03,54,8.20
2011,07,09,03,55,8.20
2011,07,09,03,56,8.20
2011,07,09,03,57,8.20
2011,07,09,03,58,8.10
2011,07,09,03,59,8.10
2011,07,09,04,00,8.10
2011,07,09,04,01,8.10
2011,07,09,04,02,8.10
2011,07,09,04,03,8.10
2011,07,09,04,04,8.10
2011,07,09,04,05,8.10
2011,07,09,04,06,8.00
2011,07,09,04,07,8.00
2011,07,09,04,08,8.00
2011,07,09,04,09,8.00
2011,07,09,04,10,7.90
2011,07,09,04,11,7.90
2011,07,09,04,12,7.90
2011,07,09,04,13,7.90
2011,07,09,04,14,7.90
2011,07,09,04,15,7.80
2011,07,09,04,16,7.80
2011,07,09,04,17,7.80
2011,07,09,04,18,7.80
2011,07,09,04,19,7.80
2011,07,09,04,20,7.70
2011,07,09,04,21,7.70
2011,07,09,04,22,7.70
2011,07,09,04,23,7.70
2011,07,09,04,24,7.70
2011,07,09,04,25,7.60
2011,07,09,04,26,7.60
2011,07,09,04,27,7.60
2011,07,09,04,28,7.60
2011,07,09,04,29,7.50
2011,07,09,04,30,7.50
2011,07,09,04,31,7.40
2011,07,09,04,32,7.40
2011,07,09,04,33,7.40
2011,07,09,04,34,7.40
2011,07,09,04,35,7.40
2011,07,09,04,36,7.30
2011,07,09,04,37,7.30
2011,07,09,04,38,7.30
2011,07,09,04,39,7.30
2011,07,09,04,40,7.30
2011,07,09,04,41,7.30
2011,07,09,04,42,7.20
2011,07,09,04,43,7.20
2011,07,09,04,44,7.20
2011,07,09,04,45,7.20
2011,07,09,04,46,7.20
2011,07,09,04,47,7.20
2011,07,09,04,48,7.20
2011,07,09,04,49,7.20
2011,07,09,04,50,7.20
2011,07,09,04,51,7.20
2011,07,09,04,52,7.20
2011,07,09,04,53,7.20
2011,07,09,04,54,7.20
2011,07,09,04,55,7.20
2011,07,09,04,56,7.10
2011,07,09,04,57,7.10
2011,07,09,04,58,7.10
2011,07,09,04,59,7.10
2011,07,09,05,00,7.10
2011,07,09,05,01,7.00
2011,07,09,05,02,7.00
2011,07,09,05,03,7.00
2011,07,09,05,04,7.00
2011,07,09,05,05,7.00
2011,07,09,05,06,6.90
2011,07,09,05,07,6.90
2011,07,09,05,08,6.90
2011,07,09,05,09,6.90
2011,07,09,05,10,6.90
2011,07,09,05,11,6.90
2011,07,09,05,12,6.80
2011,07,09,05,13,6.80
2011,07,09,05,14,6.80
2011,07,09,05,15,6.80
2011,07,09,05,16,6.80
2011,07,09,05,17,6.80
2011,07,09,05,18,6.80
2011,07,09,05,19,6.80
2011,07,09,05,20,6.80
2011,07,09,05,21,6.80
2011,07,09,05,22,6.70
2011,07,09,05,23,6.70
2011,07,09,05,24,6.70
2011,07,09,05,25,6.70
2011,07,09,05,26,6.70
2011,07,09,05,27,6.70
2011,07,09,05,28,6.70
2011,07,09,05,29,6.70
2011,07,09,05,30,6.70
2011,07,09,05,31,6.70
2011,07,09,05,32,6.80
2011,07,09,05,33,6.80
2011,07,09,05,34,6.80
2011,07,09,05,35,6.80
2011,07,09,05,36,6.80
2011,07,09,05,37,6.70
2011,07,09,05,38,6.70
2011,07,09,05,39,6.70
2011,07,09,05,40,6.70
2011,07,09,05,41,6.70
2011,07,09,05,42,6.70
2011,07,09,05,43,6.70
2011,07,09,05,44,6.70
2011,07,09,05,45,6.70
2011,07,09,05,46,6.70
2011,07,09,05,47,6.70
2011,07,09,05,48,6.70
2011,07,09,05,49,6.70
2011,07,09,05,50,6.70
2011,07,09,05,51,6.70
2011,07,09,05,52,6.70
2011,07,09,05,53,6.70
2011,07,09,05,54,6.60
2011,07,09,05,55,6.60
2011,07,09,05,56,6.60
2011,07,09,05,57,6.60
2011,07,09,05,58,6.60
2011,07,09,05,59,6.60
2011,07,09,06,00,6.60
2011,07,09,06,01,6.60
2011,07,09,06,02,6.60
2011,07,09,06,03,6.60
2011,07,09,06,04,6.60
2011,07,09,06,05,6.60
2011,07,09,06,06,6.60
2011,07,09,06,07,6.60
2011,07,09,06,08,6.60
2011,07,09,06,09,6.60
2011,07,09,06,10,6.60
2011,07,09,06,11,6.60
2011,07,09,06,12,6.60
2011,07,09,06,13,6.60
2011,07,09,06,14,6.60
2011,07,09,06,15,6.60
2011,07,09,06,16,6.60
2011,07,09,06,17,6.60
2011,07,09,06,18,6.60
2011,07,09,06,19,6.60
2011,07,09,06,20,6.60
2011,07,09,06,21,6.60
2011,07,09,06,22,6.60
2011,07,09,06,23,6.60
2011,07,09,06,24,6.60
2011,07,09,06,25,6.60
2011,07,09,06,26,6.60
2011,07,09,06,27,6.60
2011,07,09,06,28,6.60
2011,07,09,06,29,6.60
2011,07,09,06,30,6.60
2011,07,09,06,31,6.60
2011,07,09,06,32,6.60
2011,07,09,06,33,6.60
2011,07,09,06,34,6.60
2011,07,09,06,35,6.60
2011,07,09,06,36,6.60
2011,07,09,06,37,6.60
2011,07,09,06,38,6.60
2011,07,09,06,39,6.60
2011,07,09,06,40,6.60
2011,07,09,06,41,6.60
2011,07,09,06,42,6.60
2011,07,09,06,43,6.60
2011,07,09,06,44,6.60
2011,07,09,06,45,6.60
2011,07,09,06,46,6.60
2011,07,09,06,47,6.60
2011,07,09,06,48,6.70
2011,07,09,06,49,6.70
2011,07,09,06,50,6.70
2011,07,09,06,51,6.70
2011,07,09,06,52,6.70
2011,07,09,06,53,6.70
2011,07,09,06,54,6.70
2011,07,09,06,55,6.70
2011,07,09,06,56,6.70
2011,07,09,06,57,6.80
2011,07,09,06,58,6.80
2011,07,09,06,59,6.80
2011,07,09,07,00,6.80
2011,07,09,07,01,6.90
2011,07,09,07,02,6.90
2011,07,09,07,03,6.90
2011,07,09,07,04,6.90
2011,07,09,07,05,7.00
2011,07,09,07,06,7.00
2011,07,09,07,07,7.00
2011,07,09,07,08,7.10
2011,07,09,07,09,7.10
2011,07,09,07,10,7.10
2011,07,09,07,11,7.20
2011,07,09,07,12,7.20
2011,07,09,07,13,7.20
2011,07,09,07,14,7.20
2011,07,09,07,15,7.30
2011,07,09,07,16,7.30
2011,07,09,07,17,7.40
2011,07,09,07,18,7.50
2011,07,09,07,19,7.50
2011,07,09,07,20,7.60
2011,07,09,07,21,7.70
2011,07,09,07,22,7.80
2011,07,09,07,23,7.90
2011,07,09,07,24,8.00
2011,07,09,07,25,8.10
2011,07,09,07,26,8.20
2011,07,09,07,27,8.30
2011,07,09,07,28,8.30
2011,07,09,07,29,8.30
2011,07,09,07,30,8.40
2011,07,09,07,31,8.50
2011,07,09,07,32,8.60
2011,07,09,07,33,8.70
2011,07,09,07,34,8.70
2011,07,09,07,35,8.80
2011,07,09,07,36,8.90
2011,07,09,07,37,9.00
2011,07,09,07,38,9.00
2011,07,09,07,39,9.10
2011,07,09,07,40,9.20
2011,07,09,07,41,9.20
2011,07,09,07,42,9.30
2011,07,09,07,43,9.30
2011,07,09,07,44,9.40
2011,07,09,07,45,9.40
2011,07,09,07,46,9.50
2011,07,09,07,47,9.60
2011,07,09,07,48,9.60
2011,07,09,07,49,9.60
2011,07,09,07,50,9.70
2011,07,09,07,51,9.70
2011,07,09,07,52,9.80
2011,07,09,07,53,9.80
2011,07,09,07,54,9.90
2011,07,09,07,55,9.90
2011,07,09,07,56,10.00
2011,07,09,07,57,10.00
2011,07,09,07,58,10.10
2011,07,09,07,59,10.20
2011,07,09,08,00,10.20
2011,07,09,08,01,10.30
2011,07,09,08,02,10.40
2011,07,09,08,03,10.50
2011,07,09,08,04,10.60
2011,07,09,08,05,10.60
2011,07,09,08,06,10.70
2011,07,09,08,07,10.80
2011,07,09,08,08,10.90
2011,07,09,08,09,11.00
2011,07,09,08,10,11.10
2011,07,09,08,11,11.20
2011,07,09,08,12,11.20
2011,07,09,08,13,11.30
2011,07,09,08,14,11.30
2011,07,09,08,15,11.40
2011,07,09,08,16,11.40
2011,07,09,08,17,11.50
2011,07,09,08,18,11.60
2011,07,09,08,19,11.60
2011,07,09,08,20,11.70
2011,07,09,08,21,11.80
2011,07,09,08,22,11.80
2011,07,09,08,23,11.80
2011,07,09,08,24,11.90
2011,07,09,08,25,11.90
2011,07,09,08,26,11.90
2011,07,09,08,27,11.90
2011,07,09,08,28,12.00
2011,07,09,08,29,12.00
2011,07,09,08,30,12.00
2011,07,09,08,31,12.00
2011,07,09,08,32,12.10
2011,07,09,08,33,12.10
2011,07,09,08,34,12.10
2011,07,09,08,35,12.20
2011,07,09,08,36,12.20
2011,07,09,08,37,12.20
2011,07,09,08,38,12.30
2011,07,09,08,39,12.30
2011,07,09,08,40,12.30
2011,07,09,08,41,12.40
2011,07,09,08,42,12.40
2011,07,09,08,43,12.40
2011,07,09,08,44,12.40
2011,07,09,08,45,12.50
2011,07,09,08,46,12.50
2011,07,09,08,47,12.50
2011,07,09,08,48,12.60
2011,07,09,08,49,12.60
2011,07,09,08,50,12.60
2011,07,09,08,51,12.70
2011,07,09,08,52,12.70
2011,07,09,08,53,12.80
2011,07,09,08,54,12.90
2011,07,09,08,55,12.90
2011,07,09,08,56,13.00
2011,07,09,08,57,13.10
2011,07,09,08,58,13.20
2011,07,09,08,59,13.20
2011,07,09,09,00,13.30
2011,07,09,09,01,13.30
2011,07,09,09,02,13.40
2011,07,09,09,03,13.40
2011,07,09,09,04,13.50
2011,07,09,09,05,13.50
2011,07,09,09,06,13.60
2011,07,09,09,07,13.70
2011,07,09,09,08,13.80
2011,07,09,09,09,13.80
2011,07,09,09,10,13.80
2011,07,09,09,11,13.90
2011,07,09,09,12,14.00
2011,07,09,09,13,14.00
2011,07,09,09,14,14.10
2011,07,09,09,15,14.10
2011,07,09,09,16,14.00
2011,07,09,09,17,14.00
2011,07,09,09,18,14.10
2011,07,09,09,19,14.10
2011,07,09,09,20,14.20
2011,07,09,09,21,14.20
2011,07,09,09,22,14.30
2011,07,09,09,23,14.40
2011,07,09,09,24,14.50
2011,07,09,09,25,14.50
2011,07,09,09,26,14.60
2011,07,09,09,27,14.60
2011,07,09,09,28,14.70
2011,07,09,09,29,14.80
2011,07,09,09,30,14.90
2011,07,09,09,31,15.00
2011,07,09,09,32,15.00
2011,07,09,09,33,15.00
2011,07,09,09,34,15.00
2011,07,09,09,35,15.00
2011,07,09,09,36,15.10
2011,07,09,09,37,15.20
2011,07,09,09,38,15.30
2011,07,09,09,39,15.30
2011,07,09,09,40,15.30
2011,07,09,09,41,15.30
2011,07,09,09,42,15.30
2011,07,09,09,43,15.40
2011,07,09,09,44,15.40
2011,07,09,09,45,15.50
2011,07,09,09,46,15.50
2011,07,09,09,47,15.50
2011,07,09,09,48,15.60
2011,07,09,09,49,15.50
2011,07,09,09,50,15.50
2011,07,09,09,51,15.40
2011,07,09,09,52,15.40
2011,07,09,09,53,15.50
2011,07,09,09,54,15.50
2011,07,09,09,55,15.60
2011,07,09,09,56,15.80
2011,07,09,09,57,15.90
2011,07,09,09,58,15.90
2011,07,09,09,59,16.00
2011,07,09,10,00,16.10
2011,07,09,10,01,16.10
2011,07,09,10,02,16.10
2011,07,09,10,03,16.20
2011,07,09,10,04,16.30
2011,07,09,10,05,16.40
2011,07,09,10,06,16.50
2011,07,09,10,07,16.60
2011,07,09,10,08,16.70
2011,07,09,10,09,16.80
2011,07,09,10,10,16.80
2011,07,09,10,11,17.00
2011,07,09,10,12,17.00
2011,07,09,10,13,17.00
2011,07,09,10,14,16.90
2011,07,09,10,15,16.80
2011,07,09,10,16,16.80
2011,07,09,10,17,16.70
2011,07,09,10,18,16.60
2011,07,09,10,19,16.50
2011,07,09,10,20,16.40
2011,07,09,10,21,16.40
2011,07,09,10,22,16.30
2011,07,09,10,23,16.30
2011,07,09,10,24,16.30
2011,07,09,10,25,16.30
2011,07,09,10,26,16.30
2011,07,09,10,27,16.40
2011,07,09,10,28,16.50
2011,07,09,10,29,16.50
2011,07,09,10,30,16.70
2011,07,09,10,31,16.80
2011,07,09,10,32,16.90
2011,07,09,10,33,16.90
2011,07,09,10,34,17.00
2011,07,09,10,35,16.90
2011,07,09,10,36,16.90
2011,07,09,10,37,16.90
2011,07,09,10,38,16.80
2011,07,09,10,39,16.90
2011,07,09,10,40,16.90
2011,07,09,10,41,16.90
2011,07,09,10,42,16.90
2011,07,09,10,43,16.90
2011,07,09,10,44,16.80
2011,07,09,10,45,16.80
2011,07,09,10,46,16.80
2011,07,09,10,47,16.90
2011,07,09,10,48,17.00
2011,07,09,10,49,17.10
2011,07,09,10,50,17.20
2011,07,09,10,51,17.30
2011,07,09,10,52,17.40
2011,07,09,10,53,17.40
2011,07,09,10,54,17.40
2011,07,09,10,55,17.40
2011,07,09,10,56,17.40
2011,07,09,10,57,17.40
2011,07,09,10,58,17.40
2011,07,09,10,59,17.50
2011,07,09,11,00,17.60
2011,07,09,11,01,17.70
2011,07,09,11,02,17.70
2011,07,09,11,03,17.80
2011,07,09,11,04,17.70
2011,07,09,11,05,17.70
2011,07,09,11,06,17.50
2011,07,09,11,07,17.40
2011,07,09,11,08,17.40
2011,07,09,11,09,17.40
2011,07,09,11,10,17.50
2011,07,09,11,11,17.60
2011,07,09,11,12,17.60
2011,07,09,11,13,17.70
2011,07,09,11,14,17.70
2011,07,09,11,15,17.60
2011,07,09,11,16,17.60
2011,07,09,11,17,17.60
2011,07,09,11,18,17.70
2011,07,09,11,19,17.80
2011,07,09,11,20,17.90
2011,07,09,11,21,18.00
2011,07,09,11,22,18.10
2011,07,09,11,23,18.20
2011,07,09,11,24,18.20
2011,07,09,11,25,18.30
2011,07,09,11,26,18.30
2011,07,09,11,27,18.30
2011,07,09,11,28,18.30
2011,07,09,11,29,18.30
2011,07,09,11,30,18.40
2011,07,09,11,31,18.50
2011,07,09,11,32,18.50
2011,07,09,11,33,18.60
2011,07,09,11,34,18.60
2011,07,09,11,35,18.60
2011,07,09,11,36,18.50
2011,07,09,11,37,18.50
2011,07,09,11,38,18.40
2011,07,09,11,39,18.40
2011,07,09,11,40,18.30
2011,07,09,11,41,18.20
2011,07,09,11,42,18.20
2011,07,09,11,43,18.20
2011,07,09,11,44,18.30
2011,07,09,11,45,18.40
2011,07,09,11,46,18.50
2011,07,09,11,47,18.50
2011,07,09,11,48,18.60
2011,07,09,11,49,18.60
2011,07,09,11,50,18.60
2011,07,09,11,51,18.60
2011,07,09,11,52,18.70
2011,07,09,11,53,18.70
2011,07,09,11,54,18.80
2011,07,09,11,55,18.80
2011,07,09,11,56,18.80
2011,07,09,11,57,18.90
2011,07,09,11,58,19.00
2011,07,09,11,59,19.20
2011,07,09,12,00,19.30
2011,07,09,12,01,19.40
2011,07,09,12,02,19.60
2011,07,09,12,03,19.70
2011,07,09,12,04,19.80
2011,07,09,12,05,19.90
2011,07,09,12,06,20.00
2011,07,09,12,07,20.10
2011,07,09,12,08,20.00
2011,07,09,12,09,20.00
2011,07,09,12,10,19.90
2011,07,09,12,11,19.80
2011,07,09,12,12,19.80
2011,07,09,12,13,19.70
2011,07,09,12,14,19.70
2011,07,09,12,15,19.70
2011,07,09,12,16,19.50
2011,07,09,12,17,19.40
2011,07,09,12,18,19.30
2011,07,09,12,19,19.30
2011,07,09,12,20,19.20
2011,07,09,12,21,19.20
2011,07,09,12,22,19.30
2011,07,09,12,23,19.20
2011,07,09,12,24,19.10
2011,07,09,12,25,19.10
2011,07,09,12,26,19.20
2011,07,09,12,27,19.20
2011,07,09,12,28,19.20
2011,07,09,12,29,19.30
2011,07,09,12,30,19.30
2011,07,09,12,31,19.30
2011,07,09,12,32,19.30
2011,07,09,12,33,19.30
2011,07,09,12,34,19.40
2011,07,09,12,35,19.50
2011,07,09,12,36,19.60
2011,07,09,12,37,19.70
2011,07,09,12,38,19.70
2011,07,09,12,39,19.70
2011,07,09,12,40,19.70
2011,07,09,12,41,19.80
2011,07,09,12,42,19.90
2011,07,09,12,43,20.00
2011,07,09,12,44,20.10
2011,07,09,12,45,20.20
2011,07,09,12,46,20.30
2011,07,09,12,47,20.40
2011,07,09,12,48,20.50
2011,07,09,12,49,20.60
2011,07,09,12,50,20.70
2011,07,09,12,51,20.80
2011,07,09,12,52,20.90
2011,07,09,12,53,20.90
2011,07,09,12,54,20.80
2011,07,09,12,55,20.80
2011,07,09,12,56,20.70
2011,07,09,12,57,20.70
2011,07,09,12,58,20.60
2011,07,09,12,59,20.70
2011,07,09,13,00,20.60
2011,07,09,13,01,20.50
2011,07,09,13,02,20.50
2011,07,09,13,03,20.40
2011,07,09,13,04,20.50
2011,07,09,13,05,20.50
2011,07,09,13,06,20.60
2011,07,09,13,07,20.70
2011,07,09,13,08,20.80
2011,07,09,13,09,20.60
2011,07,09,13,10,20.50
2011,07,09,13,11,20.40
2011,07,09,13,12,20.50
2011,07,09,13,13,20.50
2011,07,09,13,14,20.50
2011,07,09,13,15,20.40
2011,07,09,13,16,20.30
2011,07,09,13,17,20.30
2011,07,09,13,18,20.30
2011,07,09,13,19,20.40
2011,07,09,13,20,20.60
2011,07,09,13,21,20.70
2011,07,09,13,22,20.90
2011,07,09,13,23,21.10
2011,07,09,13,24,21.30
2011,07,09,13,25,21.50
2011,07,09,13,26,21.70
2011,07,09,13,27,21.80
2011,07,09,13,28,21.80
2011,07,09,13,29,21.80
2011,07,09,13,30,21.70
2011,07,09,13,31,21.60
2011,07,09,13,32,21.50
2011,07,09,13,33,21.40
2011,07,09,13,34,21.40
2011,07,09,13,35,21.50
2011,07,09,13,36,21.50
2011,07,09,13,37,21.50
2011,07,09,13,38,21.40
2011,07,09,13,39,21.50
2011,07,09,13,40,21.50
2011,07,09,13,41,21.50
2011,07,09,13,42,21.40
2011,07,09,13,43,21.30
2011,07,09,13,44,21.40
2011,07,09,13,45,21.40
2011,07,09,13,46,21.40
2011,07,09,13,47,21.40
2011,07,09,13,48,21.40
2011,07,09,13,49,21.40
2011,07,09,13,50,21.50
2011,07,09,13,51,21.60
2011,07,09,13,52,21.80
2011,07,09,13,53,21.90
2011,07,09,13,54,22.00
2011,07,09,13,55,21.90
2011,07,09,13,56,21.80
2011,07,09,13,57,21.70
2011,07,09,13,58,21.80
2011,07,09,13,59,21.80
2011,07,09,14,00,22.00
2011,07,09,14,01,22.10
2011,07,09,14,02,22.20
2011,07,09,14,03,22.20
2011,07,09,14,04,21.90
2011,07,09,14,05,21.70
2011,07,09,14,06,21.40
2011,07,09,14,07,21.30
2011,07,09,14,08,21.10
2011,07,09,14,09,21.10
2011,07,09,14,10,21.10
2011,07,09,14,11,21.10
2011,07,09,14,12,21.20
2011,07,09,14,13,21.30
2011,07,09,14,14,21.30
2011,07,09,14,15,21.30
2011,07,09,14,16,21.40
2011,07,09,14,17,21.50
2011,07,09,14,18,21.60
2011,07,09,14,19,21.60
2011,07,09,14,20,21.80
2011,07,09,14,21,21.90
2011,07,09,14,22,22.10
2011,07,09,14,23,22.20
2011,07,09,14,24,22.30
2011,07,09,14,25,22.40
2011,07,09,14,26,22.50
2011,07,09,14,27,22.70
2011,07,09,14,28,22.80
2011,07,09,14,29,22.80
2011,07,09,14,30,22.90
2011,07,09,14,31,22.90
2011,07,09,14,32,23.00
2011,07,09,14,33,23.10
2011,07,09,14,34,23.20
2011,07,09,14,35,23.30
2011,07,09,14,36,23.40
2011,07,09,14,37,23.40
2011,07,09,14,38,23.30
2011,07,09,14,39,23.20
2011,07,09,14,40,23.00
2011,07,09,14,41,22.70
2011,07,09,14,42,22.40
2011,07,09,14,43,22.20
2011,07,09,14,44,22.00
2011,07,09,14,45,21.90
2011,07,09,14,46,21.80
2011,07,09,14,47,21.50
2011,07,09,14,48,21.20
2011,07,09,14,49,21.10
2011,07,09,14,50,21.00
2011,07,09,14,51,20.90
2011,07,09,14,52,20.90
2011,07,09,14,53,20.80
2011,07,09,14,54,20.80
2011,07,09,14,55,20.80
2011,07,09,14,56,20.60
2011,07,09,14,57,20.50
2011,07,09,14,58,20.60
2011,07,09,14,59,20.60
2011,07,09,15,00,20.60
2011,07,09,15,01,20.60
2011,07,09,15,02,20.60
2011,07,09,15,03,20.70
2011,07,09,15,04,20.60
2011,07,09,15,05,20.50
2011,07,09,15,06,20.40
2011,07,09,15,07,20.40
2011,07,09,15,08,20.50
2011,07,09,15,09,20.50
2011,07,09,15,10,20.60
2011,07,09,15,11,20.60
2011,07,09,15,12,20.60
2011,07,09,15,13,20.60
2011,07,09,15,14,20.70
2011,07,09,15,15,20.80
2011,07,09,15,16,20.90
2011,07,09,15,17,21.00
2011,07,09,15,18,21.00
2011,07,09,15,19,20.90
2011,07,09,15,20,20.70
2011,07,09,15,21,20.60
2011,07,09,15,22,20.60
2011,07,09,15,23,20.60
2011,07,09,15,24,20.60
2011,07,09,15,25,20.60
2011,07,09,15,26,20.60
2011,07,09,15,27,20.60
2011,07,09,15,28,20.60
2011,07,09,15,29,20.60
2011,07,09,15,30,20.60
2011,07,09,15,31,20.60
2011,07,09,15,32,20.70
2011,07,09,15,33,20.80
2011,07,09,15,34,20.80
2011,07,09,15,35,20.80
2011,07,09,15,36,20.80
2011,07,09,15,37,20.80
2011,07,09,15,38,20.70
2011,07,09,15,39,20.60
2011,07,09,15,40,20.50
2011,07,09,15,41,20.50
2011,07,09,15,42,20.50
2011,07,09,15,43,20.50
2011,07,09,15,44,20.60
2011,07,09,15,45,20.70
2011,07,09,15,46,20.80
2011,07,09,15,47,20.70
2011,07,09,15,48,20.60
2011,07,09,15,49,20.40
2011,07,09,15,50,20.30
2011,07,09,15,51,20.10
2011,07,09,15,52,20.00
2011,07,09,15,53,20.00
2011,07,09,15,54,20.10
2011,07,09,15,55,20.20
2011,07,09,15,56,20.20
2011,07,09,15,57,20.20
2011,07,09,15,58,20.20
2011,07,09,15,59,20.30
2011,07,09,16,00,20.30
2011,07,09,16,01,20.30
2011,07,09,16,02,20.30
2011,07,09,16,03,20.40
2011,07,09,16,04,20.40
2011,07,09,16,05,20.40
2011,07,09,16,06,20.30
2011,07,09,16,07,20.30
2011,07,09,16,08,20.20
2011,07,09,16,09,20.20
2011,07,09,16,10,20.10
2011,07,09,16,11,20.10
2011,07,09,16,12,20.00
2011,07,09,16,13,19.90
2011,07,09,16,14,19.90
2011,07,09,16,15,19.80
2011,07,09,16,16,19.70
2011,07,09,16,17,19.70
2011,07,09,16,18,19.60
2011,07,09,16,19,19.60
2011,07,09,16,20,19.50
2011,07,09,16,21,19.50
2011,07,09,16,22,19.50
2011,07,09,16,23,19.50
2011,07,09,16,24,19.50
2011,07,09,16,25,19.50
2011,07,09,16,26,19.60
2011,07,09,16,27,19.60
2011,07,09,16,28,19.70
2011,07,09,16,29,19.70
2011,07,09,16,30,19.80
2011,07,09,16,31,19.80
2011,07,09,16,32,19.90
2011,07,09,16,33,20.00
2011,07,09,16,34,20.10
2011,07,09,16,35,20.20
2011,07,09,16,36,20.20
2011,07,09,16,37,20.30
2011,07,09,16,38,20.40
2011,07,09,16,39,20.50
2011,07,09,16,40,20.60
2011,07,09,16,41,20.70
2011,07,09,16,42,20.70
2011,07,09,16,43,20.70
2011,07,09,16,44,20.60
2011,07,09,16,45,20.60
2011,07,09,16,46,20.70
2011,07,09,16,47,20.70
2011,07,09,16,48,20.70
2011,07,09,16,49,20.60
2011,07,09,16,50,20.50
2011,07,09,16,51,20.50
2011,07,09,16,52,20.40
2011,07,09,16,53,20.30
2011,07,09,16,54,20.20
2011,07,09,16,55,20.20
2011,07,09,16,56,20.10
2011,07,09,16,57,20.10
2011,07,09,16,58,20.10
2011,07,09,16,59,20.10
2011,07,09,17,00,20.10
2011,07,09,17,01,20.10
2011,07,09,17,02,20.10
2011,07,09,17,03,20.20
2011,07,09,17,04,20.20
2011,07,09,17,05,20.20
2011,07,09,17,06,20.30
2011,07,09,17,07,20.40
2011,07,09,17,08,20.40
2011,07,09,17,09,20.50
2011,07,09,17,10,20.60
2011,07,09,17,11,20.70
2011,07,09,17,12,20.80
2011,07,09,17,13,20.80
2011,07,09,17,14,20.80
2011,07,09,17,15,20.80
2011,07,09,17,16,20.80
2011,07,09,17,17,20.70
2011,07,09,17,18,20.50
2011,07,09,17,19,20.40
2011,07,09,17,20,20.40
2011,07,09,17,21,20.30
2011,07,09,17,22,20.30
2011,07,09,17,23,20.30
2011,07,09,17,24,20.30
2011,07,09,17,25,20.20
2011,07,09,17,26,20.10
2011,07,09,17,27,20.00
2011,07,09,17,28,19.90
2011,07,09,17,29,19.90
2011,07,09,17,30,19.80
2011,07,09,17,31,19.80
2011,07,09,17,32,19.70
2011,07,09,17,33,19.70
2011,07,09,17,34,19.60
2011,07,09,17,35,19.60
2011,07,09,17,36,19.60
2011,07,09,17,37,19.60
2011,07,09,17,38,19.60
2011,07,09,17,39,19.70